Home   Weather   Kilgore   Past weeks

Flag for USA Past Weather in Kilgore, Texas, USA — Yesterday and Last 2 Weeks

Now
28 °F

Clear.


Feels Like: 23 °F
Forecast: 27 / 45 °F
Wind: 5 mph from North

Location: Gregg County Airport

Current Time: Dec 9, 2016 at 3:51:01 am

Latest Report: Dec 9, 2016 at 2:53 am


Visibility: 10 mi

Pressure: 30.64 "Hg

Humidity: 75%

Dew Point: 21 °F

Location of KilgoreLocation

Past Weather in Kilgore — Graph

°F

Kilgore Temperature Yesterday

Maximum temperature yesterday: 45 °F (at 12:53 am)
Minimum temperature yesterday: 31 °F (at 10:53 pm)
Average temperature yesterday: 39 °F

High & Low Weather Summary for the Past Weeks

 TemperatureHumidityPressure
High74 °F (Nov 29, 11:53 am)100% (Nov 24, 1:53 am)30.65 "Hg (Nov 24, 1:53 am)
Low30 °F (Dec 9, 12:53 am)19% (Dec 1, 1:53 pm)29.44 "Hg (Nov 28, 2:53 pm)
Average52 °F81%30.05 "Hg
* Reported Nov 24 1:53 am — Dec 9 1:53 am, Kilgore, Weather by CustomWeather, © 2016

Note: Actual official high and low records may vary slightly from our data, if they occured in-between our weather recording intervals... More about our weather records

Advertising

Kilgore Weather History for the Previous 24 Hours

Scroll right to see more
 ConditionsComfort  
Time TempWeatherWind HumidityBarometerVisibility
1:53 am
Fri, Dec 9
30 °FClear.5 mph69%30.63 "Hg10 mi
12:53 am30 °FClear.5 mph72%30.64 "Hg10 mi
11:53 pm
Thu, Dec 8
31 °FPassing clouds.5 mph73%30.65 "Hg10 mi
10:53 pm31 °FClear.6 mph73%30.64 "Hg10 mi
9:53 pm33 °FPassing clouds.6 mph63%30.63 "Hg10 mi
8:53 pm36 °FPassing clouds.6 mph59%30.62 "Hg10 mi
7:53 pm36 °FOvercast.8 mph57%30.61 "Hg10 mi
6:53 pm37 °FOvercast.8 mph54%30.58 "Hg10 mi
5:53 pm38 °FOvercast.8 mph55%30.55 "Hg10 mi
4:53 pm38 °FOvercast.14 mph58%30.55 "Hg10 mi
3:53 pm40 °FOvercast.13 mph58%30.55 "Hg10 mi
2:53 pm41 °FOvercast.10 mph58%30.54 "Hg10 mi
1:53 pm43 °FOvercast.10 mph58%30.52 "Hg10 mi
12:53 pm41 °FOvercast.10 mph65%30.53 "Hg10 mi
11:53 am40 °FOvercast.8 mph70%30.54 "Hg10 mi
10:53 am41 °FOvercast.12 mph74%30.58 "Hg10 mi
9:53 am40 °FPartly sunny.15 mph73%30.56 "Hg10 mi
8:53 am39 °FSunny.10 mph76%30.53 "Hg10 mi
7:53 am39 °FBroken clouds.10 mph82%30.49 "Hg10 mi
6:53 am39 °FOvercast.10 mph82%30.47 "Hg10 mi
5:53 am39 °FMostly cloudy.8 mph89%30.44 "Hg10 mi
5:00 am39 °FLight rain. Mostly cloudy.9 mph93%30.41 "Hg10 mi
3:58 am42 °FLight rain. Mostly cloudy.12 mph92%30.38 "Hg10 mi
Weather by CustomWeather, © 2016

See weather overviewHow to use our weather pages